Location: W�rzburg
(49.7529°N, 9.8822°E)
Time: 13:44:34
(UTC+01:00)

ISS - Visible Passes

Search period start: 21 January 2018 00:00
Search period end: 31 January 2018 00:00
Orbit: 402 x 407 km, 51.6° (Epoch: 21 January)

Date Brightness Start Highest point End Pass type
(mag) Time Alt. Az. Time Alt. Az. Time Alt. Az.
25 Jan -0.7 19:46:14 10° SSW 19:46:19 11° SSW 19:46:19 11° SSW visible
26 Jan -2.0 18:54:31 10° SSW 18:56:26 19° SSE 18:56:26 19° SSE visible
27 Jan -1.5 18:03:24 10° SSE 18:04:53 13° SE 18:06:23 10° ESE visible
27 Jan -1.8 19:37:36 10° SW 19:39:08 25° SW 19:39:08 25° SW visible
28 Jan -3.1 18:45:30 10° SW 18:48:32 37° SSE 18:49:05 34° SE visible
28 Jan -0.3 20:21:38 10° W 20:21:45 11° W 20:21:45 11° W visible
29 Jan -2.3 17:53:38 10° SSW 17:56:18 24° SE 17:58:58 10° E visible
29 Jan -2.8 19:29:13 10° WSW 19:31:38 46° WSW 19:31:38 46° WSW visible
30 Jan -3.8 18:36:54 10° WSW 18:40:08 65° SSE 18:41:27 32° E visible
30 Jan -0.7 20:13:25 10° W 20:14:06 15° W 20:14:06 15° W visible
